Weather History for Lexington, KY

Change the Weather History Date:

Sunday, February 3, 2013

  Actual Average Record
Temperature  
Mean Temperature 25 °F 34 °F  
Max Temperature 29 °F 43 °F 70 °F (1890)
Min Temperature 20 °F 26 °F -8 °F (1951)
Degree Days  
Heating Degree Days 40 31  
Month to date heating degree days 133 93  
Since 1 July heating degree days 2812 2876  
Cooling Degree Days 0 0  
Month to date cooling degree days 0 0  
Year to date cooling degree days 0 0  
Moisture  
Dew Point 22 °F    
Average Humidity 77    
Maximum Humidity 85    
Minimum Humidity 68    
Precipitation  
Precipitation T in 0.12 in 0.91 in (1939)
Month to date precipitation 0.15 0.35  
Year to date precipitation 4.61 3.55  
Snow  
Snow 0.30 in 0.20 in 3.60 in (2009)
Month to date snowfall 2.4 0.6  
Since 1 July snowfall 8.3 7.3  
Snow Depth 2.00 in    
Sea Level Pressure  
Sea Level Pressure 30.05 in    
Wind  
Wind Speed 8 mph (West)    
Max Wind Speed 20 mph    
Max Gust Speed 28 mph    
Visibility 9 miles    
Events Snow    
T = Trace of Precipitation, MM = Missing Value Source: NWS Daily Summary

Daily Weather History Graph

Daily Weather History Graph

Search for Another Location

Airport:

Trip Planner

Search our weather history database for the weather conditions in past years. The results will help you decide how hot, cold, wet, or windy it might be!

Date:

Astronomy

Feb. 03, 2013 Rise Set
Actual Time 7:40 AM EST 6:04 PM EST
Civil Twilight 7:13 AM EST 6:31 PM EST
Nautical Twilight 6:41 AM EST 7:03 PM EST
Astronomical Twilight 6:11 AM EST 7:34 PM EST
Moon 1:07 AM EST (2/3) 11:41 AM EST (2/3)
Length of Visible Light 11h 18m
Length of Day
10h 23m
Waning Gibbous, 49% of the Moon is Illuminated
Feb 3
Waning Gibbous
Feb 10
New
Feb 17
First Quarter
Feb 25
Full
Mar 4
Last Quarter

Hourly Weather History & Observations

Time (EST) Temp. Windchill Dew Point Humidity Pressure Visibility Wind Dir Wind Speed Gust Speed Precip Events Conditions
12:54 AM 28.0 °F 22.8 °F 24.1 °F 85% 30.06 in 10.0 mi SW 4.6 mph - N/A   Overcast
1:54 AM 28.0 °F 22.8 °F 24.1 °F 85% 30.04 in 10.0 mi SW 4.6 mph - N/A   Overcast
2:05 AM 28.4 °F 23.3 °F 24.8 °F 86% 30.01 in 10.0 mi WSW 4.6 mph - N/A   Overcast
2:34 AM 28.4 °F 19.7 °F 24.8 °F 86% 30.00 in 10.0 mi WSW 9.2 mph - N/A   Overcast
2:54 AM 28.9 °F 20.4 °F 24.1 °F 82% 30.02 in 10.0 mi WSW 9.2 mph - N/A   Overcast
3:54 AM 28.9 °F 20.4 °F 23.0 °F 78% 30.00 in 10.0 mi West 9.2 mph - N/A   Overcast
4:54 AM 28.0 °F 20.0 °F 21.9 °F 78% 29.99 in 10.0 mi West 8.1 mph - N/A   Overcast
5:54 AM 27.0 °F 19.5 °F 21.9 °F 81% 29.98 in 10.0 mi WSW 6.9 mph - N/A   Overcast
6:54 AM 27.0 °F 21.6 °F 23.0 °F 85% 29.98 in 10.0 mi West 4.6 mph - N/A   Overcast
7:27 AM 26.6 °F 19.1 °F 23.0 °F 86% 29.95 in 8.0 mi West 6.9 mph - 0.00 in Snow Light Snow
7:40 AM 26.6 °F 18.2 °F 23.0 °F 86% 29.96 in 9.0 mi West 8.1 mph - N/A   Overcast
7:51 AM 26.6 °F 18.2 °F 23.0 °F 86% 29.96 in 10.0 mi West 8.1 mph - 0.00 in   Overcast
7:54 AM 27.0 °F 20.5 °F 23.0 °F 85% 29.99 in 10.0 mi West 5.8 mph - 0.00 in   Overcast
8:15 AM 26.6 °F 17.5 °F 23.0 °F 86% 29.96 in 4.0 mi West 9.2 mph - 0.00 in Snow Light Snow
8:54 AM 27.0 °F 19.5 °F 23.0 °F 85% 30.00 in 4.0 mi West 6.9 mph - 0.00 in Snow Light Snow
9:54 AM 26.1 °F 19.4 °F 21.9 °F 84% 30.01 in 8.0 mi WNW 5.8 mph - 0.00 in   Overcast
10:54 AM 26.1 °F 19.4 °F 21.9 °F 84% 30.02 in 6.0 mi WNW 5.8 mph - 0.00 in   Overcast
11:54 AM 27.0 °F 18.7 °F 21.9 °F 81% 30.02 in 8.0 mi West 8.1 mph - N/A   Overcast
12:54 PM 28.0 °F 20.0 °F 23.0 °F 81% 30.03 in 8.0 mi WNW 8.1 mph - N/A   Overcast
1:54 PM 28.0 °F 16.5 °F 23.0 °F 81% 30.04 in 10.0 mi WNW 15.0 mph 23.0 mph N/A   Overcast
2:54 PM 28.0 °F 16.1 °F 23.0 °F 81% 30.06 in 9.0 mi WNW 16.1 mph - N/A   Overcast
3:37 PM 28.4 °F 18.0 °F 24.8 °F 86% 30.04 in 5.0 mi West 12.7 mph - 0.00 in Snow Light Snow
3:47 PM 28.4 °F 18.5 °F 24.8 °F 86% 30.05 in 2.5 mi West 11.5 mph - N/A Snow Light Snow
3:54 PM 28.0 °F 17.5 °F 24.1 °F 85% 30.08 in 2.0 mi West 12.7 mph - 0.00 in Snow Light Snow
4:52 PM 28.4 °F 18.5 °F 21.2 °F 74% 30.07 in 9.0 mi West 11.5 mph 21.9 mph 0.00 in   Overcast
4:54 PM 28.0 °F 16.5 °F 21.0 °F 75% 30.10 in 10.0 mi West 15.0 mph 21.9 mph 0.00 in   Overcast
5:07 PM 28.4 °F 17.0 °F 21.2 °F 74% 30.08 in 8.0 mi WNW 15.0 mph 21.9 mph 0.00 in Snow Light Snow
5:54 PM 27.0 °F 20.5 °F 21.0 °F 78% 30.12 in 9.0 mi West 5.8 mph - 0.00 in   Overcast
6:05 PM 26.6 °F 20.0 °F 21.2 °F 80% 30.09 in 9.0 mi West 5.8 mph - N/A   Overcast
6:54 PM 27.0 °F 20.5 °F 21.0 °F 78% 30.14 in 10.0 mi West 5.8 mph - N/A   Overcast
7:54 PM 27.0 °F 18.0 °F 21.0 °F 78% 30.16 in 10.0 mi West 9.2 mph - N/A   Overcast
8:54 PM 27.0 °F 18.7 °F 21.0 °F 78% 30.17 in 10.0 mi West 8.1 mph - N/A   Overcast
9:54 PM 26.1 °F 19.4 °F 18.0 °F 71% 30.18 in 10.0 mi WNW 5.8 mph - N/A   Overcast
10:16 PM 24.8 °F 19.1 °F 17.6 °F 74% 30.14 in 10.0 mi WNW 4.6 mph - N/A   Mostly Cloudy
10:31 PM 24.8 °F 20.5 °F 17.6 °F 74% 30.14 in 10.0 mi WNW 3.5 mph - N/A   Partly Cloudy
10:54 PM 23.0 °F - 17.1 °F 78% 30.17 in 10.0 mi Calm Calm - N/A   Clear
11:54 PM 21.0 °F 16.2 °F 18.0 °F 88% 30.17 in 10.0 mi SW 3.5 mph - N/A   Clear